This demonstration page uses our WeatherBlox Daily Observations layout. Learn more.

Hourly Observations for May 12, 2015

Temp ( °F °C ) Dew Point ( °F °C ) Humidity (%) Winds ( mph kmh ) Pressure ( in mb ) Visibility ( mi km ) Precip ( " mm )
12:15 am 00:15 Clear 41 5 30 -1 66 66 W 7 11 30.24 1024 10 16.09344 0 0
12:35 am 00:35 Clear 41 5 30 -1 66 66 W 6 9 30.24 1024 10 16.09344 0 0
12:55 am 00:55 Clear 39 4 28 -2 65 65 W 6 9 30.3 1026 10 16.09344 0 0
1:15 am 01:15 Clear 39 4 28 -2 65 65 W 5 7 30.27 1025 10 16.09344 0 0
1:35 am 01:35 Clear 39 4 28 -2 65 65 W 5 7 30.3 1026 10 16.09344 0 0
1:55 am 01:55 Clear 37 3 27 -3 65 65 W 3 6 30.3 1026 10 16.09344 0 0
2:15 am 02:15 Clear 39 4 28 -2 65 65 W 5 7 30.3 1026 10 16.09344 0 0
2:35 am 02:35 Clear 39 4 28 -2 65 65 W 5 7 30.3 1026 10 16.09344 0 0
2:55 am 02:55 Clear 37 3 27 -3 65 65 W 5 7 30.3 1026 10 16.09344 0 0
3:15 am 03:15 Clear 37 3 28 -2 70 70 WSW 5 7 30.3 1026 10 16.09344 0 0
3:35 am 03:35 Clear 37 3 28 -2 70 70 W 5 7 30.3 1026 10 16.09344 0 0
3:55 am 03:55 Clear 37 3 28 -2 70 70 WSW 3 6 30.3 1026 10 16.09344 0 0
4:15 am 04:15 Clear 37 3 28 -2 70 70 SW 3 6 30.3 1026 10 16.09344 0 0
4:35 am 04:35 Clear 37 3 28 -2 70 70 Calm 30.3 1026 10 16.09344 0 0
4:55 am 04:55 Clear 36 2 27 -3 70 70 Calm 30.3 1026 10 16.09344 0 0
5:15 am 05:15 Clear 37 3 28 -2 70 70 Calm 30.3 1026 10 16.09344 0 0
5:35 am 05:35 Clear 36 2 28 -2 75 75 Calm 30.27 1025 10 16.09344 0 0
5:55 am 05:55 Clear 34 1 28 -2 81 81 SSW 5 7 30.33 1027 10 16.09344 0 0
6:15 am 06:15 Clear 34 1 28 -2 81 81 Calm 30.3 1026 10 16.09344 0 0
6:35 am 06:35 Sunny 32 0 28 -2 87 87 SSW 5 7 30.33 1027 10 16.09344 0 0
6:55 am 06:55 Sunny 36 2 28 -2 75 75 SW 7 11 30.3 1026 10 16.09344 0 0
7:15 am 07:15 Sunny 39 4 28 -2 65 65 SSW 7 11 30.33 1027 10 16.09344 0 0
7:35 am 07:35 Partly Cloudy 43 6 30 -1 61 61 SSW 7 11 30.3 1026 10 16.09344 0 0
7:55 am 07:55 Partly Cloudy 45 7 32 0 61 61 SSW 8 13 30.3 1026 10 16.09344 0 0
8:15 am 08:15 Sunny 46 8 32 0 57 57 SSW 12 19 30.3 1026 10 16.09344 0 0
8:35 am 08:35 Sunny 48 9 32 0 54 54 SSW 9 15 30.27 1025 10 16.09344 0 0
8:55 am 08:55 Sunny 50 10 32 0 50 50 SSW 12 19 30.27 1025 10 16.09344 0 0
9:15 am 09:15 Sunny 52 11 32 0 47 47 SSW 14 22 30.27 1025 10 16.09344 0 0
9:35 am 09:35 Sunny 54 12 32 0 44 44 SSW 13 20 30.24 1024 10 16.09344 0 0
9:55 am 09:55 Sunny 54 12 32 0 44 44 SSW 14 22 30.24 1024 10 16.09344 0 0
10:15 am 10:15 Sunny 55 13 32 0 41 41 S 15 24 30.24 1024 10 16.09344 0 0
10:35 am 10:35 Sunny 57 14 32 0 39 39 S 15 24 30.24 1024 10 16.09344 0 0
10:55 am 10:55 Sunny 59 15 30 -1 34 34 S 15 24 30.21 1023 10 16.09344 0 0
11:15 am 11:15 Sunny 59 15 28 -2 31 31 S 16 26 30.21 1023 10 16.09344 0 0
11:35 am 11:35 Sunny 61 16 28 -2 29 29 S 18 30 30.21 1023 10 16.09344 0 0
11:55 am 11:55 Sunny 63 17 25 -4 24 24 S 20 31 30.21 1023 10 16.09344 0 0
12:15 pm 12:15 Sunny 63 17 27 -3 25 25 S 16 26 30.21 1023 10 16.09344 0 0
12:35 pm 12:35 Sunny 64 18 28 -2 26 26 S 21 33 30.18 1022 10 16.09344 0 0
12:55 pm 12:55 Sunny 64 18 28 -2 26 26 S 23 37 30.18 1022 10 16.09344 0 0
1:15 pm 13:15 Sunny 64 18 30 -1 28 28 S 20 31 30.12 1020 10 16.09344 0 0
1:35 pm 13:35 Sunny 66 19 30 -1 26 26 S 22 35 30.12 1020 10 16.09344 0 0
1:55 pm 13:55 Sunny 66 19 32 0 28 28 S 23 37 30.12 1020 10 16.09344 0 0
2:15 pm 14:15 Sunny 66 19 32 0 28 28 S 23 37 30.09 1019 10 16.09344 0 0
2:35 pm 14:35 Sunny 68 20 32 0 26 26 S 25 41 30.09 1019 10 16.09344 0 0
2:55 pm 14:55 Sunny 68 20 34 1 28 28 S 24 39 30.09 1019 10 16.09344 0 0
3:15 pm 15:15 Sunny 70 21 34 1 27 27 S 26 43 30.03 1017 10 16.09344 0 0
3:35 pm 15:35 Sunny 70 21 32 0 25 25 S 24 39 30.03 1017 10 16.09344 0 0
3:55 pm 15:55 Sunny 70 21 32 0 25 25 S 26 43 30.03 1017 10 16.09344 0 0
4:15 pm 16:15 Sunny 70 21 32 0 25 25 SSW 29 46 30.03 1017 10 16.09344 0 0
4:35 pm 16:35 Sunny 70 21 34 1 27 27 S 24 39 30.03 1017 10 16.09344 0 0
4:55 pm 16:55 Sunny 70 21 34 1 27 27 S 29 46 30.03 1017 10 16.09344 0 0
5:15 pm 17:15 Sunny 70 21 34 1 27 27 S 25 41 30.03 1017 10 16.09344 0 0
5:35 pm 17:35 Sunny 70 21 34 1 27 27 S 25 41 30 1016 10 16.09344 0 0
5:55 pm 17:55 Sunny 70 21 36 2 29 29 S 23 37 30 1016 10 16.09344 0 0
6:15 pm 18:15 Sunny 70 21 36 2 29 29 S 24 39 30 1016 10 16.09344 0 0
6:35 pm 18:35 Sunny 68 20 36 2 30 30 S 17 28 30.03 1017 10 16.09344 0 0
6:55 pm 18:55 Sunny 70 21 36 2 29 29 S 26 43 30 1016 10 16.09344 0 0
7:15 pm 19:15 Sunny 70 21 36 2 29 29 S 25 41 30 1016 10 16.09344 0 0
7:35 pm 19:35 Sunny 68 20 34 1 28 28 S 24 39 30 1016 10 16.09344 0 0
7:55 pm 19:55 Sunny 68 20 34 1 28 28 S 17 28 30 1016 10 16.09344 0 0
8:15 pm 20:15 Sunny 66 19 36 2 32 32 SSE 18 30 30 1016 10 16.09344 0 0
8:35 pm 20:35 Sunny 64 18 36 2 34 34 SSE 15 24 30 1016 10 16.09344 0 0
8:55 pm 20:55 Clear 63 17 36 2 37 37 SSE 13 20 30.03 1017 10 16.09344 0 0
9:15 pm 21:15 Clear 61 16 36 2 39 39 SSE 14 22 30.06 1018 10 16.09344 0 0
9:35 pm 21:35 Clear 59 15 37 3 45 45 SSE 15 24 30.06 1018 10 16.09344 0 0
9:55 pm 21:55 Clear 59 15 37 3 45 45 SSE 14 22 30.06 1018 10 16.09344 0 0
10:15 pm 22:15 Clear 57 14 37 3 48 48 SSE 13 20 30.06 1018 10 16.09344 0 0
10:35 pm 22:35 Clear 57 14 39 4 51 51 SSE 15 24 30.09 1019 10 16.09344 0 0
10:55 pm 22:55 Clear 55 13 39 4 55 55 SSE 13 20 30.12 1020 10 16.09344 0 0
11:15 pm 23:15 Clear 55 13 39 4 55 55 SSE 16 26 30.12 1020 10 16.09344 0 0
11:35 pm 23:35 Clear 55 13 39 4 55 55 SSE 20 31 30.12 1020 10 16.09344 0 0
11:55 pm 23:55 Clear 55 13 39 4 55 55 SSE 21 33 30.12 1020 10 16.09344 0 0

Powered by AerisWeather